Location: ??????????
(48.5701°N, 37.7703°E)
Time: 19:33:48
(UTC+00:00)

IRS-1D - Pass Details

Date: 14 July 2020
Orbit: 739 x 817 km, 98.6° (Epoch: 11 August)

Event Time Altitude Azimuth Distance (km) Brightness Sun altitude
Rises 00:37:18 0° 8° (N) 3,200 7.7 -8.9°
Reaches altitude 10° 00:39:43 10° 1° (N) 2,266 6.7 -8.6°
Maximum altitude 00:44:18 39° 294° (WNW) 1,104 4.2 -8.1°
Drops below altitude 10° 00:48:51 10° 226° (SW) 2,248 5.2 -7.5°
Enters shadow 00:49:01 - 226° (SW) 2,310 5.3 -7.5°
